User: anonymous   Login
Location: Lobos
(35.3000°S, 59.0940°W)
Time: 22:02:23
(UTC-03:00)
Language:

CAS-4A - Orbit

View from above orbital plane
View from above orbital plane
View from above satellite
View from above satellite

Ground track
Ground track

The orbit data is extracted from the following two-line orbital elements,

1 42761U 17034D   20328.78909001  .00000688  00000-0  54935-4 0  9996
2 42761  43.0184 230.7398 0011839 312.4662 149.3108 15.10042396190052
Epoch (UTC): 23 November 2020 18:56:17
Eccentricity: 0.0011839
inclination: 43.0184°
perigee height: 528 km
apogee height: 544 km
right ascension of ascending node: 230.7398°
argument of perigee: 312.4662°
revolutions per day: 15.10042396
mean anomaly at epoch: 149.3108°
orbit number at epoch: 19005

The dashed part of the orbit path shows where the satellite is in the earth's shadow,  

DLR